Terminal Aerodrome Forecast
Issued by NWS La Crosse, WI

Home | Current Version | Previous Version | Text Only | Print | Product List | Glossary On
Versions: 1 2 3 4 5 6 7 8 9 10 11 12 13 14 15 16 17 18 19 20 21 22 23 24 25 26 27 28 29 30 31 32
000
FTUS43 KARX 170525
TAFLSE
TAF
KLSE 170525Z 1706/1806 15005KT P6SM SKC
     FM170900 15005KT P6SM BCFG SCT070
     FM171400 17005KT P6SM SCT070
     FM172200 VRB03KT P6SM SKC=

USA.gov is the U.S. government's official web portal to all federal, state and local government web resources and services.